[[{"header":{"parameterUnit":"m.s-1","parameterCategory":1,"la1":30.2991,"la2":30.254,"lo1":-89.0895,"lo2":-89.0444,"dy":0.0017,"dx":0.0017,"nx":28,"ny":28,"refTime":"2023-09-09T03:00:00:Z","depth":0,"parameterNumber":2,"parameterNumberName":"U-component_of_WINDS"},"data":[0,0,0,0,0,0,0,0,0,0,0,0,0,0,0,0,0,0,0,0,0,0,0,0,0,0,0,0,0,0,0,0,0,0,0,0,0,0,0,0,0,0,0,0,0,0,0,0,0,0,0,0,0,0,0,0,0,0,0.6986,0.6988,0,0.7151,0.7153,0.7155,0.7165,0.7163,0.7162,0.716,0.7335,0.7341,0.7348,0,0,0,0,0,0,0,0,0,0,0,0,0,0.6687,0.6692,0.6986,0.6988,0.699,0.7151,0.7153,0.7155,0.7166,0.7163,0.7161,0.7159,0.7333,0.7341,0.7348,0,0,0,0,0,0,0,0,0,0,0,0,0,0.6831,0.6694,0.6985,0.7014,0.7019,0.715,0.7153,0.7156,0.7166,0.7163,0.7161,0.7158,0.733,0.734,0.7349,0.7465,0,0,0.7379,0.7383,0,0,0,0,0,0,0,0,0.6822,0.6842,0.7008,0.7013,0.7018,0.7135,0.7112,0.726,0.7167,0.711,0.716,0.7157,0.7271,0.7285,0.7323,0.7473,0.7481,0.738,0.7385,0.739,0.7392,0,0,0,0,0,0,0,0.6812,0.6835,0.7051,0.7011,0.7016,0.7021,0.7039,0.714,0.7205,0.7115,0.7116,0.7135,0.7273,0.7313,0.7327,0.7483,0.7379,0.7388,0.7394,0.7398,0.7739,0.7742,0,0,0,0,0,0,0.6796,0.6826,0.7046,0.7056,0.6911,0.7029,0.7048,0.71,0.7204,0.7217,0.7138,0.7135,0.7298,0.7316,0.7333,0.7476,0.7389,0.7398,0.7404,0.7736,0.774,0.7744,0,0,0,0,0,0,0.679,0.6815,0.7039,0.6942,0.697,0.7037,0.7095,0.7105,0.7145,0.722,0.7233,0.7166,0.7297,0.732,0.7432,0.7483,0.7403,0.7412,0.7732,0.7737,0.7742,0.7763,0,0,0,0,0,0,0.6781,0.6813,0.6856,0.6942,0.6976,0.7134,0.7098,0.711,0.7161,0.7159,0.7251,0.7263,0.7296,0.7418,0.7442,0.7494,0.7419,0.7728,0.7734,0.774,0.7758,0.7768,0.7777,0,0,0,0,0,0.677,0.6856,0.6858,0.6885,0.703,0.7136,0.7156,0.719,0.7165,0.721,0.7258,0.726,0.7473,0.7429,0.7456,0.7513,0.7725,0.7733,0.774,0.7754,0.7766,0.7776,0,0,0,0,0,0,0.6776,0.6868,0.6871,0.6987,0.7054,0.7138,0.7195,0.7202,0.7278,0.7274,0.7316,0.7336,0.7448,0.7492,0.7441,0.7631,0.7597,0.761,0.7598,0.761,0.7619,0.7607,0.7427,0,0,0,0,0,0.679,0.6867,0.6944,0.704,0.7073,0.7128,0.7176,0.7197,0.7268,0.7297,0.7354,0.7425,0.7508,0.7561,0.7642,0.7765,0.7786,0.7817,0.7826,0.7833,0.7845,0.7914,0.7929,0.7768,0.7768,0.7768,0,0,0.6822,0.6882,0.6928,0.7042,0.7096,0.7176,0.7152,0.7238,0.7298,0.731,0.742,0.7464,0.7546,0.7665,0.772,0.7705,0.7894,0.7843,0.7848,0.7856,0.7923,0.7939,0.7952,0.7773,0.7772,0.7771,0,0,0.692,0.6972,0.7058,0.7112,0.7194,0.723,0.7251,0.7335,0.7364,0.7474,0.7485,0.7559,0.7701,0.7759,0.7807,0.7929,0.7934,0.7954,0.8002,0.807,0.8083,0.8094,0.8138,0.8154,0.7965,0.7965,0.7965,0,0.6949,0.7068,0.7102,0.7187,0.7238,0.7251,0.734,0.7392,0.7496,0.7532,0.7513,0.7691,0.7748,0.788,0.791,0.7948,0.7975,0.7944,0.8078,0.809,0.8101,0.8144,0.816,0.7967,0.7967,0.7966,0.7966,0,0.7101,0.7184,0.7244,0.7342,0.74,0.7487,0.7535,0.759,0.7606,0.7646,0.7759,0.7827,0.7922,0.7955,0.7972,0.8091,0.8079,0.8069,0.8035,0.8118,0.8159,0.8175,0.797,0.7969,0.7968,0.7968,0,0,0.7207,0.7323,0.7344,0.7389,0.7481,0.7547,0.7635,0.7726,0.7773,0.7845,0.7921,0.8041,0.8032,0.8087,0.8112,0.8171,0.8264,0.8153,0.8156,0.8172,0.84,0.8408,0.8426,0.8268,0.8271,0.8274,0.8394,0,0.7315,0.747,0.7503,0.7638,0.7716,0.773,0.7808,0.7873,0.7913,0.7987,0.8031,0.8116,0.8097,0.813,0.819,0.824,0.831,0.8232,0.8341,0.8345,0.832,0.8447,0.8455,0.8565,0.841,0.8412,0.8414,0,0.7462,0.7536,0.7678,0.776,0.7794,0.7862,0.7949,0.8019,0.8095,0.8119,0.8181,0.8199,0.8294,0.8255,0.8388,0.8333,0.8381,0.8412,0.8417,0.8429,0.8384,0.8463,0.8601,0.8617,0.844,0.8438,0.8436,0,0.7526,0.7661,0.7763,0.7802,0.79,0.7948,0.7992,0.8064,0.8117,0.8194,0.8229,0.8317,0.8365,0.8433,0.8476,0.8443,0.8605,0.857,0.863,0.8629,0.8664,0.8661,0.8811,0.8693,0.8693,0.8693,0.8692,0,0.7643,0.773,0.7793,0.7856,0.7955,0.7993,0.809,0.8134,0.8199,0.8272,0.8291,0.836,0.8412,0.8489,0.8523,0.8628,0.865,0.8674,0.8682,0.8672,0.8669,0.8704,0.8697,0.8697,0.8696,0.8695,0.8695,0,0.7731,0.7776,0.7889,0.7973,0.7996,0.8065,0.8137,0.8201,0.8241,0.8334,0.8358,0.8422,0.8514,0.8562,0.8678,0.8701,0.8819,0.8823,0.8793,0.8796,0.8854,0.8848,0.9031,0.9058,0.8922,0.8924,0.8925,0,0.7803,0.7869,0.796,0.8009,0.8053,0.8134,0.8187,0.8229,0.8285,0.8377,0.843,0.8522,0.8598,0.8744,0.8802,0.8891,0.8898,0.8956,0.8911,0.89,0.8899,0.8895,0.8902,0.8964,0.8965,0.8966,0.8967,0,0.7926,0.7945,0.8021,0.8106,0.8169,0.8238,0.8307,0.8347,0.8401,0.8463,0.8556,0.8615,0.8732,0.8824,0.8918,0.8965,0.8976,0.8981,0.8999,0.899,0.897,0.8982,0.8814,0.8976,0.8975,0.8975,0.8974,0.8974,0.8008,0.8068,0.8142,0.8226,0.8282,0.8346,0.8409,0.8457,0.8535,0.8632,0.8653,0.8752,0.8828,0.8954,0.9004,0.9083,0.9072,0.9099,0.9106,0.9112,0.9114,0.8957,0.9101,0.9101,0.91,0.91,0.91,0,0.8133,0.8181,0.8258,0.8352,0.842,0.8422,0.8499,0.8555,0.8641,0.871,0.8784,0.8892,0.8982,0.9047,0.9139,0.9191,0.9198,0.9214,0.921,0.9221,0.9119,0.9094,0.9206,0.9206,0.9206,0.9206,0.9206,0.9206,0.8205,0.8308,0.8336,0.8467,0.8515,0.8611,0.8654,0.8714,0.8769,0.8888,0.8962,0.9004,0.9072,0.917,0.9253,0.927,0.9303,0.9318,0.9336,0.924,0.9228,0.9218,0.9194,0.9325,0.9325,0.9432,0.9433,0.9433]},{"header":{"parameterUnit":"m.s-1","parameterCategory":1,"la1":30.2991,"la2":30.254,"lo1":-89.0895,"lo2":-89.0444,"dy":0.0017,"dx":0.0017,"nx":28,"ny":28,"refTime":"2023-09-09T03:00:00:Z","depth":0,"parameterNumber":3,"parameterNumberName":"V-component_of_WINDS"},"data":[0,0,0,0,0,0,0,0,0,0,0,0,0,0,0,0,0,0,0,0,0,0,0,0,0,0,0,0,0,0,0,0,0,0,0,0,0,0,0,0,0,0,0,0,0,0,0,0,0,0,0,0,0,0,0,0,0,0,0.0477,0.0477,0,0.0498,0.0498,0.0498,0.0412,0.041,0.0407,0.0405,0.0431,0.0434,0.0437,0,0,0,0,0,0,0,0,0,0,0,0,0,0.0364,0.0367,0.0477,0.0477,0.0477,0.0498,0.0498,0.0498,0.0413,0.041,0.0407,0.0404,0.043,0.0434,0.0438,0,0,0,0,0,0,0,0,0,0,0,0,0,0.0402,0.0368,0.0476,0.0437,0.0433,0.0498,0.0498,0.0499,0.0413,0.041,0.0406,0.0402,0.0429,0.0434,0.0438,0.0544,0,0,0.0452,0.0454,0,0,0,0,0,0,0,0,0.04,0.0406,0.0442,0.044,0.0436,0.0448,0.0468,0.0514,0.0414,0.0421,0.0405,0.04,0.0441,0.0444,0.0457,0.0545,0.0546,0.0453,0.0456,0.0458,0.0459,0,0,0,0,0,0,0,0.0398,0.0405,0.0485,0.0443,0.0439,0.0419,0.042,0.0476,0.0452,0.042,0.0414,0.0417,0.0438,0.0452,0.0457,0.0546,0.0453,0.0457,0.046,0.0462,0.072,0.0724,0,0,0,0,0,0,0.04,0.0403,0.0484,0.0486,0.0408,0.0424,0.0425,0.0448,0.0451,0.0448,0.0421,0.0413,0.0446,0.0451,0.0457,0.0579,0.0458,0.0462,0.0465,0.0716,0.0721,0.0725,0,0,0,0,0,0,0.0398,0.0408,0.0484,0.0443,0.0451,0.043,0.0457,0.0451,0.0465,0.0452,0.0447,0.044,0.0443,0.0451,0.0522,0.0579,0.0464,0.0468,0.0711,0.0717,0.0723,0.0825,0,0,0,0,0,0,0.0395,0.0408,0.0447,0.0444,0.0453,0.0548,0.046,0.0454,0.0473,0.0463,0.0468,0.0465,0.0441,0.0515,0.0527,0.0583,0.0472,0.0706,0.0714,0.0721,0.0817,0.0834,0.0849,0,0,0,0,0,0.0391,0.0477,0.0449,0.046,0.0502,0.0551,0.0556,0.0525,0.0478,0.0517,0.0508,0.0465,0.0571,0.0523,0.0535,0.0594,0.0702,0.0711,0.072,0.081,0.0831,0.0849,0,0,0,0,0,0,0.0489,0.0476,0.0445,0.0532,0.0543,0.0536,0.0586,0.0549,0.0575,0.0566,0.0527,0.0529,0.0607,0.0607,0.0555,0.0695,0.0628,0.064,0.0692,0.0712,0.0728,0.0727,0.0476,0,0,0,0,0,0.052,0.056,0.0547,0.0625,0.0631,0.0608,0.0628,0.0603,0.0613,0.0618,0.0614,0.0627,0.0662,0.0687,0.072,0.0816,0.0815,0.0862,0.0878,0.0892,0.0903,0.0952,0.0973,0.0755,0.0755,0.0755,0,0,0.0587,0.0584,0.0612,0.0644,0.065,0.0692,0.0612,0.0662,0.0693,0.0626,0.0692,0.069,0.0701,0.0785,0.0822,0.0788,0.0962,0.0903,0.0914,0.0918,0.0964,0.0984,0.1003,0.0761,0.076,0.0759,0,0,0.0728,0.0731,0.0795,0.0801,0.0809,0.0792,0.0808,0.0806,0.0801,0.0866,0.0816,0.0853,0.0916,0.0926,0.0939,0.1081,0.1042,0.1093,0.1178,0.1227,0.1244,0.1259,0.1309,0.1327,0.1104,0.1104,0.1104,0,0.081,0.0871,0.0833,0.0884,0.09,0.0838,0.0903,0.0912,0.0931,0.0943,0.0905,0.098,0.0984,0.1068,0.1103,0.1116,0.1132,0.1093,0.1244,0.1259,0.1272,0.1319,0.1338,0.111,0.111,0.1109,0.1108,0,0.097,0.1013,0.1064,0.1081,0.1103,0.1161,0.1132,0.1158,0.113,0.1118,0.1184,0.1186,0.1217,0.1235,0.1209,0.1315,0.1293,0.125,0.1182,0.1299,0.1343,0.1361,0.1119,0.1117,0.1115,0.1113,0,0,0.1177,0.117,0.1189,0.1195,0.1198,0.1231,0.1286,0.1314,0.1337,0.1352,0.1397,0.145,0.1408,0.1423,0.1398,0.1441,0.1552,0.1392,0.1391,0.1421,0.1667,0.17,0.1722,0.1525,0.1529,0.1531,0.1666,0,0.1316,0.1407,0.1373,0.1468,0.1507,0.1447,0.1495,0.1502,0.1491,0.1523,0.1511,0.1549,0.1492,0.1501,0.154,0.153,0.1601,0.152,0.1567,0.157,0.1567,0.1745,0.178,0.1908,0.1683,0.1686,0.1688,0,0.149,0.1509,0.1607,0.16,0.1615,0.1659,0.168,0.1711,0.1718,0.1707,0.1722,0.1687,0.174,0.1671,0.1744,0.169,0.1707,0.1705,0.1709,0.1713,0.1637,0.1753,0.1948,0.1967,0.1715,0.1713,0.1711,0,0.163,0.168,0.1744,0.1752,0.1746,0.1778,0.1778,0.178,0.1798,0.1817,0.1828,0.1855,0.1869,0.189,0.1862,0.1815,0.1939,0.1868,0.1932,0.1933,0.1962,0.196,0.2161,0.1973,0.1972,0.1972,0.1972,0,0.1789,0.1851,0.1807,0.1847,0.1914,0.1874,0.1942,0.1935,0.1938,0.1975,0.1926,0.1963,0.1924,0.1957,0.1936,0.1999,0.2006,0.1999,0.1992,0.2003,0.2004,0.2015,0.2005,0.1977,0.1976,0.1975,0.1974,0,0.1958,0.193,0.1996,0.1985,0.1983,0.2033,0.2024,0.206,0.2044,0.2092,0.2101,0.2077,0.2113,0.2087,0.2124,0.2109,0.2192,0.2174,0.219,0.2185,0.2249,0.2243,0.2464,0.2491,0.2285,0.2287,0.2289,0,0.2061,0.2106,0.2099,0.2119,0.2121,0.2155,0.2172,0.2134,0.2155,0.2164,0.2199,0.223,0.2253,0.2313,0.23,0.2327,0.2309,0.2384,0.2313,0.2321,0.2309,0.2307,0.2311,0.2399,0.2401,0.2403,0.2405,0,0.2247,0.223,0.2256,0.2276,0.2297,0.2313,0.2324,0.2344,0.2305,0.233,0.2365,0.2383,0.2418,0.245,0.2471,0.2471,0.2432,0.2427,0.2443,0.2455,0.2462,0.2458,0.2229,0.2423,0.2421,0.242,0.2419,0.2418,0.2385,0.2422,0.2422,0.2452,0.2455,0.2466,0.2499,0.2486,0.2514,0.2538,0.2514,0.2556,0.256,0.2584,0.2589,0.2621,0.259,0.2614,0.262,0.2626,0.2635,0.2456,0.2625,0.2625,0.2624,0.2624,0.2623,0,0.2568,0.2564,0.2591,0.2607,0.263,0.2588,0.2598,0.2621,0.2657,0.2663,0.2685,0.2725,0.2754,0.2742,0.2768,0.2796,0.2779,0.2804,0.2802,0.2802,0.2661,0.2645,0.2818,0.2818,0.2818,0.2818,0.2817,0.2817,0.2666,0.2726,0.2709,0.277,0.2765,0.2804,0.2813,0.2823,0.2827,0.2872,0.2895,0.2886,0.2884,0.2909,0.2934,0.293,0.2941,0.2974,0.2963,0.2832,0.2813,0.2794,0.2778,0.2977,0.2977,0.3101,0.3102,0.3103]}]]